SCP
8 9 8 7 6 6 6 6 7 7 8 9 9 9 8 7 5 4 3 3 3 2 1 1 1 1 1 1 1 1 1 1 1 1 1 1 1 0 1 1 1 0 0
8 8 7 6 6 6 6 6 7 7 9 9 10 10 9 7 6 4 4 3 3 3 2 1 1 1 1 1 1 1 1 0 1 1 1 1 1 1 1 1 1 1 0
7 6 5 5 5 5 6 7 7 7 9 10 11 10 9 8 7 5 4 4 4 3 3 2 2 2 2 2 1 1 1 1 0 1 1 0 0 0 0 1 1 1 1
7 6 6 6 6 6 6 7 7 8 9 10 11 11 10 9 8 7 6 5 4 4 3 3 3 3 2 2 2 2 1 1 1 0 0 0 0 0 0 0 1 1 1
8 7 7 7 8 8 7 8 8 9 10 11 11 11 11 10 10 9 8 6 5 4 3 3 3 3 3 2 2 2 2 1 1 1 0 0 0 0 0 0 0 1 1
7 7 7 7 8 8 8 8 8 9 11 12 12 12 12 11 11 10 9 8 7 5 4 3 3 3 3 3 2 2 2 1 1 1 1 0 0 0 0 0 0 0 0
5 5 5 5 6 6 6 7 8 9 11 13 13 13 12 12 11 10 9 8 7 6 4 4 3 4 4 3 3 2 2 1 1 1 1 1 1 0 0 0 0 0 0
5 4 4 4 4 4 5 6 8 9 11 12 13 12 12 12 11 11 10 8 7 6 5 4 4 4 4 3 3 2 2 2 1 1 1 1 1 0 0 0 0 0 0
6 5 4 3 3 3 4 6 8 9 11 12 12 12 11 11 11 11 10 8 6 5 4 5 5 5 5 4 3 3 3 2 2 1 1 1 0 0 0 0 0 0 0
6 5 4 3 3 3 4 6 8 9 10 11 11 11 11 11 11 11 10 8 6 5 4 4 5 5 5 5 4 4 3 3 2 2 1 1 0 0 0 0 0 0 0
5 5 4 4 4 4 5 7 8 9 10 11 12 11 11 10 10 9 8 7 6 5 5 5 5 5 5 5 5 4 4 4 3 2 2 1 0 0 0 0 0 0 0
4 4 4 4 4 5 6 8 8 9 10 10 10 10 9 9 9 8 7 6 5 6 6 6 5 4 4 5 5 5 5 4 4 3 2 1 1 0 0 0 0 0 0
4 4 4 4 4 4 6 7 7 8 8 8 8 8 7 7 7 7 6 5 5 5 6 6 5 4 4 4 4 4 5 5 4 3 2 1 1 0 0 0 0 0 0
3 3 3 3 3 4 5 6 7 6 6 6 6 5 5 5 5 5 5 4 4 4 4 4 4 4 4 4 4 4 4 4 3 3 2 1 1 0 0 0 0 0 0
4 4 4 4 4 5 6 6 6 5 5 5 4 4 3 3 3 3 3 3 2 2 2 3 3 3 3 4 4 3 3 3 2 2 1 1 1 0 0 0 0 0 0
4 4 5 5 5 5 5 5 4 4 5 5 4 3 2 2 2 2 2 2 2 1 1 2 2 2 2 2 2 2 2 2 1 1 1 1 1 0 0 0 0 0 0
4 4 4 5 4 4 3 3 3 4 5 5 4 3 3 2 2 1 1 1 1 1 1 1 1 2 2 1 1 1 1 2 1 1 1 1 1 1 0 0 0 0 0
4 3 3 4 4 3 3 3 3 3 4 5 4 3 3 2 2 2 1 1 1 1 1 1 1 2 2 2 1 1 1 2 2 1 1 1 1 1 0 0 0 0 0
3 2 3 4 4 3 3 2 2 2 3 4 4 4 3 3 2 2 2 1 1 1 1 1 1 2 2 1 1 0 1 1 2 2 2 1 1 1 0 0 0 0 0
2 2 2 3 3 3 3 2 2 2 3 4 4 4 3 3 3 2 2 2 1 1 1 1 1 1 1 1 1 0 0 1 2 2 2 1 1 1 0 0 0 0 0
2 2 2 2 2 2 2 2 2 2 3 4 5 4 4 3 3 3 2 2 1 1 1 1 1 1 1 1 1 0 0 1 1 2 2 2 1 0 0 0 1 0 0
1 2 2 2 2 2 2 2 2 2 3 4 5 4 4 4 3 3 2 1 1 1 0 1 1 1 1 1 1 0 0 0 1 1 2 2 1 0 0 0 0 0 0
1 1 1 1 1 1 1 1 1 2 4 5 5 5 4 4 3 2 2 1 1 1 1 1 1 1 1 1 1 0 0 0 0 1 1 1 1 0 0 0 0 0 0
0 0 0 0 0 0 1 1 1 2 4 5 5 5 4 3 2 2 1 1 1 1 1 1 1 1 1 1 1 0 0 0 0 0 1 0 0 0 0 0 0 0 0
0 0 0 0 0 0 0 0 1 3 5 5 5 5 4 3 2 1 1 1 1 1 1 1 1 0 0 0 0 0 0 0 0 0 0 0 0 0 0 0 0 0 0
0 0 0 0 0 1 0 0 1 3 5 5 6 5 4 3 2 1 1 1 0 0 0 0 0 0 0 0 0 0 0 0 0 0 0 0 0 0 0 0 0 0 0
Wind_Speed
5 6 7 7 6 5 6 6 7 6 5 4 4 3 3 2 2 2 3 4 3 4 4 3 3 3 3 3 3 2 2 1 1 3 2 2 1 0 1 1 2 2 3
4 6 6 6 6 6 6 5 6 6 6 4 4 3 3 2 2 2 2 3 4 4 4 4 3 3 3 3 2 3 2 1 1 3 2 1 3 2 0 1 1 2 1
8 7 6 6 6 6 6 6 5 5 5 5 3 3 2 1 1 1 2 2 3 4 4 4 4 3 4 3 3 3 3 2 1 2 4 3 2 2 2 1 1 1 1
7 7 6 6 6 6 5 5 4 4 5 5 5 5 4 3 3 3 2 2 3 4 4 4 4 4 3 4 4 3 3 3 2 1 1 2 4 3 0 2 1 1 1
6 7 6 5 4 4 4 4 4 4 4 5 5 5 4 3 2 2 3 2 2 3 4 4 4 3 3 3 3 3 3 3 3 2 1 1 1 2 3 1 2 2 1
5 6 5 5 4 3 3 4 4 4 4 5 5 5 5 4 4 3 4 3 2 2 3 3 3 3 3 3 3 3 3 3 3 2 2 2 2 2 2 2 2 1 2
5 5 6 5 5 4 3 3 4 3 3 4 4 4 5 5 5 4 4 3 2 2 3 3 3 3 3 3 3 3 3 3 3 3 2 2 2 2 3 3 2 1 1
5 6 6 5 4 5 4 4 4 3 3 4 3 3 4 4 3 3 3 4 3 3 3 4 4 3 3 3 3 2 3 2 2 3 2 2 2 2 3 3 3 1 1
5 5 5 5 4 4 5 6 5 3 3 4 3 3 3 4 4 3 3 2 2 3 3 4 4 4 4 4 3 3 3 2 2 2 2 2 2 2 2 3 4 4 2
4 4 4 4 4 4 4 5 5 5 4 4 4 3 3 3 3 3 3 3 3 3 3 3 3 3 3 4 3 2 2 2 2 2 2 2 1 1 1 2 2 3 4
4 3 4 3 3 3 3 3 4 3 3 4 3 3 2 2 3 3 3 4 3 4 3 3 4 4 3 3 3 3 3 3 3 2 2 2 2 2 1 2 2 2 2
4 4 4 3 3 3 3 2 3 3 3 4 3 3 3 3 2 3 3 3 3 3 4 3 4 4 3 4 4 4 3 4 4 3 3 3 2 2 1 2 2 2 2
5 4 3 3 2 2 2 2 3 4 3 3 3 3 2 2 3 3 3 3 3 3 3 3 4 3 3 4 4 4 4 4 4 4 4 4 3 2 2 2 2 2 2
5 4 3 2 1 1 2 2 2 3 3 3 3 3 3 3 3 3 3 3 3 3 3 3 4 4 4 4 4 4 4 4 4 4 4 4 5 4 4 3 3 2 2
4 4 3 2 1 1 1 2 2 2 2 3 3 2 2 2 2 2 2 2 2 2 2 3 3 3 3 4 4 4 4 3 3 3 4 5 6 6 5 4 3 3 2
3 3 3 3 2 1 2 2 2 2 2 3 2 2 2 2 2 2 2 2 2 1 2 3 3 3 3 4 5 4 3 3 3 3 4 4 5 6 6 6 6 6 5
3 3 3 3 2 1 2 2 2 2 2 2 2 2 3 3 2 2 2 2 2 1 1 1 2 2 3 4 4 4 3 3 4 4 4 4 4 5 4 5 5 5 7
2 2 2 2 1 1 2 2 3 3 3 2 2 2 2 2 2 2 1 1 1 1 1 1 2 2 3 4 4 4 3 3 4 4 5 5 4 5 4 4 3 4 5
2 2 3 2 2 2 3 3 3 3 3 2 1 1 2 2 1 1 1 1 1 1 1 2 2 2 2 3 4 4 2 3 4 4 4 5 5 6 6 4 4 4 4
2 2 2 3 2 1 2 3 3 3 2 1 1 1 1 2 1 2 1 1 1 1 1 1 1 2 2 3 4 4 2 3 3 3 3 5 5 6 7 5 5 5 5
3 3 3 3 1 1 3 3 2 2 2 2 1 1 1 1 1 1 1 1 1 1 1 1 1 2 3 4 4 4 3 3 3 2 3 3 5 6 7 6 6 8 6
3 3 3 2 1 1 3 3 1 1 1 1 1 1 1 1 1 1 1 1 1 1 1 1 2 2 2 2 3 5 4 3 3 3 3 3 5 6 6 6 7 7 5
2 2 3 2 2 1 2 2 1 0 1 1 1 1 1 1 1 1 1 0 1 1 1 1 2 2 1 1 3 3 4 4 3 3 4 5 5 5 4 7 8 5 3
2 1 2 2 1 1 1 1 1 0 1 1 0 0 0 1 0 1 1 1 1 2 2 2 2 2 1 1 1 1 2 3 2 2 3 4 4 3 4 4 4 3 4
1 2 2 2 1 0 0 1 1 0 1 1 1 0 0 0 0 1 1 2 2 3 3 3 3 2 2 4 4 3 2 2 2 1 0 1 1 1 2 2 3 3 3
1 1 1 1 0 0 0 1 1 1 1 1 1 1 1 1 0 0 2 3 3 3 3 4 3 3 5 5 5 5 4 4 3 2 1 2 2 3 3 3 3 3 3
Wind_Direction
175 149 148 141 132 134 146 155 153 158 154 155 155 157 167 168 169 177 177 176 171 162 154 153 153 151 155 160 154 132 121 104 100 86 48 9 4 182 197 174 172 189 198
147 146 146 139 142 143 146 152 159 162 163 168 170 166 161 172 175 176 182 182 171 167 163 160 162 159 150 145 147 127 127 133 126 120 104 32 351 339 314 144 170 191 194
154 153 148 148 147 154 160 158 164 164 164 157 141 121 103 94 110 173 195 199 169 165 165 166 162 161 155 164 169 157 149 161 176 139 137 143 206 297 327 303 193 190 184
140 145 145 152 161 170 167 154 154 156 162 158 154 157 161 176 197 193 192 185 172 161 163 162 162 167 167 167 177 172 161 155 172 190 160 163 157 149 289 319 313 240 193
143 144 143 146 154 160 153 153 154 157 161 163 165 166 174 190 186 170 164 169 170 171 165 159 159 165 170 174 174 170 166 166 167 169 160 121 107 127 143 216 305 322 276
135 134 129 126 124 138 147 152 159 167 168 168 168 168 174 175 164 163 165 169 167 171 171 160 161 170 174 179 180 178 176 178 170 165 163 158 155 170 152 171 209 246 275
142 136 129 129 137 143 157 153 164 171 170 169 173 173 174 173 171 171 167 168 164 171 186 171 164 170 179 176 167 163 173 171 167 178 184 177 181 167 155 148 175 225 284
156 151 145 143 151 157 164 162 164 173 172 171 179 168 162 162 167 169 165 174 180 185 175 167 167 170 172 173 162 161 178 168 170 180 175 176 192 170 162 157 150 138 320
156 158 151 145 146 158 169 172 172 173 172 174 171 163 160 158 160 158 156 167 179 175 168 163 167 172 172 169 159 169 189 177 182 187 184 184 198 180 172 155 154 152 170
149 153 152 143 144 158 174 172 176 179 173 168 171 163 163 164 162 152 157 165 172 167 159 162 166 167 170 167 162 171 193 178 191 188 181 198 202 193 182 165 159 156 159
140 136 139 140 133 131 148 173 178 168 163 171 173 162 166 164 161 168 175 169 166 164 164 172 170 171 177 175 174 189 186 188 197 197 188 202 189 190 192 160 154 162 150
135 129 125 116 112 125 146 163 172 164 170 170 164 168 171 165 169 179 178 165 165 169 172 171 169 179 184 180 181 197 198 193 199 205 199 211 197 189 178 168 177 179 172
109 107 109 112 121 138 152 154 184 172 171 162 160 160 166 169 181 181 166 159 164 168 167 164 172 183 185 182 188 196 200 204 208 203 200 205 183 203 208 195 192 190 181
119 116 114 123 129 142 161 164 168 166 162 159 157 162 183 186 183 175 163 166 164 168 177 179 185 189 186 185 188 191 202 212 218 212 206 203 194 203 205 201 196 185 167
115 119 123 121 114 147 159 148 143 139 148 142 145 164 174 166 158 160 163 166 167 177 186 180 186 189 189 196 188 193 202 206 221 225 221 218 211 209 203 202 193 184 181
120 130 129 124 126 148 138 121 129 135 132 134 150 157 141 140 146 158 161 159 171 189 180 189 189 196 208 204 199 190 192 200 213 230 235 232 220 217 213 208 197 186 187
120 127 132 131 131 141 129 132 141 130 123 134 140 134 126 127 140 147 140 166 176 175 190 197 187 203 219 210 204 195 187 205 213 216 220 232 228 212 210 217 216 215 214
126 142 141 130 118 115 115 112 110 115 118 118 125 133 130 133 134 125 146 174 167 164 179 190 203 210 237 229 217 208 204 211 220 220 216 218 226 222 208 207 215 226 229
156 165 155 139 132 129 130 108 98 106 109 116 131 141 145 144 145 162 201 198 162 170 184 187 195 203 258 247 231 209 213 227 236 233 225 219 218 220 206 199 219 243 254
138 132 113 105 108 132 126 114 115 114 129 155 166 162 153 149 163 192 204 188 170 189 188 204 208 201 233 249 238 216 204 229 248 255 246 233 223 217 206 204 208 229 244
126 113 106 98 107 137 122 120 122 156 185 174 148 148 151 165 177 177 190 179 168 163 181 237 262 238 232 243 240 225 205 215 231 240 251 247 229 226 224 218 215 226 228
107 113 103 81 58 99 116 115 146 234 173 146 150 187 198 190 154 155 193 172 153 161 228 249 284 280 255 234 238 233 229 222 214 233 242 247 246 243 243 236 234 235 228
103 103 109 90 51 54 113 131 246 11 102 129 180 223 221 205 178 171 186 185 163 193 240 242 256 275 278 260 240 234 245 247 231 243 249 260 264 258 248 239 239 231 212
115 108 106 102 71 19 98 174 237 139 127 135 158 293 287 302 297 183 181 193 214 218 230 236 241 255 267 265 253 238 249 258 254 260 270 273 268 259 254 256 247 229 215
138 131 136 137 174 229 273 296 286 155 168 182 175 193 309 293 309 297 248 227 239 228 212 219 214 211 243 250 235 217 225 224 229 226 290 312 296 284 282 274 260 245 229
132 119 125 149 210 139 322 310 291 205 166 185 192 176 189 248 260 324 331 315 290 293 243 223 215 229 235 244 243 239 242 237 213 172 207 236 245 246 249 257 262 254 242